FW7911 Weather Reports


time (UTC)temp
C
wind
direction
speed
KPH
gust
KPH
rain 1hr
cm
rain 24hr
cm
rain mn
cm
humidity
%
barometer
mb
20260506034112 11 197 1.6 6.4 0.00 0.41 0.00 88 1007.2
20260506033112 11 275 3.2 8.0 0.00 0.41 0.00 88 1007.1
20260506032112 11 280 1.6 6.4 0.00 0.41 0.00 88 1007.2
20260506031112 10 261 1.6 6.4 0.00 0.41 0.00 89 1007.2
20260506030112 10 262 3.2 9.7 0.00 0.41 0.00 91 1007.2
20260506024112 10 258 0.0 1.6 0.00 0.41 0.00 91 1007.3
20260506023112 10 258 0.0 0.0 0.00 0.41 0.00 91 1007.5
20260506022112 10 258 0.0 3.2 0.00 0.41 0.00 90 1007.7
20260506021112 11 248 0.0 4.8 0.00 0.41 0.00 89 1007.7
20260506015112 11 265 0.0 4.8 0.00 0.41 0.00 88 1007.7
20260506014111 11 282 1.6 4.8 0.00 0.41 0.00 88 1008.0
20260506013111 11 239 0.0 0.0 0.00 0.41 0.00 90 1008.0
20260506012111 10 235 1.6 4.8 0.00 0.41 0.00 90 1008.2
20260506011111 10 261 1.6 6.4 0.00 0.41 0.00 90 1008.2
20260506010111 10 272 1.6 6.4 0.00 0.41 0.00 91 1008.0
20260506005111 10 211 3.2 4.8 0.00 0.41 0.00 92 1008.0
20260506003111 10 242 4.8 4.8 0.00 0.41 0.00 92 1008.1
20260506002111 10 225 1.6 3.2 0.00 0.41 0.00 91 1008.2
20260506001111 10 235 3.2 4.8 0.00 0.41 0.00 91 1008.5
20260506000111 11 230 1.6 4.8 0.00 0.41 0.00 90 1008.5
20260505234111 11 275 0.0 0.0 0.00 0.41 0.00 90 1008.6
20260505233110 11 275 0.0 0.0 0.00 0.41 0.00 90 1008.9
20260505231110 11 270 3.2 4.8 0.00 0.41 0.00 89 1008.9
20260505230111 11 249 1.6 4.8 0.00 0.41 0.00 90 1008.9
20260505225110 11 258 3.2 4.8 0.00 0.41 0.00 90 1008.9
20260505223110 11 230 1.6 4.8 0.00 0.41 0.00 89 1008.9
20260505222110 11 232 3.2 6.4 0.00 0.41 0.00 89 1009.0
20260505221110 11 256 1.6 3.2 0.00 0.41 0.00 89 1009.0
20260505220110 11 256 0.0 4.8 0.00 0.41 0.00 89 1009.1
20260505214109 11 219 1.6 3.2 0.00 0.41 0.41 90 1009.0
20260505213109 11 229 3.2 6.4 0.00 0.41 0.41 89 1009.0
20260505211111 12 186 6.4 9.7 0.00 0.41 0.41 89 1009.3
20260505210109 12 211 4.8 8.0 0.00 0.41 0.41 89 1009.1
20260505205109 12 171 8.0 11.3 0.00 0.41 0.41 89 1009.4
20260505204109 12 220 6.4 11.3 0.00 0.41 0.41 89 1009.3
20260505203109 12 200 8.0 9.7 0.00 0.41 0.41 89 1009.3
20260505202109 12 211 4.8 8.0 0.00 0.41 0.41 89 1009.1
20260505201109 13 235 1.6 3.2 0.00 0.41 0.41 89 1009.0
20260505200109 13 223 1.6 6.4 0.00 0.41 0.41 90 1009.1
20260505195109 12 236 1.6 4.8 0.00 0.41 0.41 89 1008.9
20260505193108 12 232 1.6 4.8 0.00 0.41 0.41 88 1008.8
20260505192108 13 258 1.6 6.4 0.00 0.41 0.41 87 1008.7
20260505191108 13 228 1.6 6.4 0.00 0.41 0.41 86 1008.4
20260505185113 14 256 3.2 8.0 0.03 0.41 0.41 86 1008.3
20260505183113 14 219 6.4 16.1 0.03 0.41 0.41 84 1008.0
20260505182113 14 228 8.0 12.9 0.03 0.41 0.41 86 1007.9
20260505181113 15 182 12.9 24.1 0.03 0.41 0.41 86 1007.9
20260505180112 15 185 17.7 29.0 0.03 0.41 0.41 84 1008.2
20260505175112 16 225 6.4 16.1 0.00 0.41 0.38 82 1007.9
20260505174112 16 232 4.8 8.0 0.00 0.41 0.38 80 1007.8
20260505173112 16 250 3.2 8.0 0.00 0.41 0.38 79 1007.7
20260505172112 17 261 1.6 9.7 0.00 0.41 0.38 78 1007.7
20260505170112 17 262 4.8 11.3 0.00 0.41 0.38 74 1007.6
20260505165112 18 250 6.4 11.3 0.00 0.43 0.38 73 1007.6
20260505164112 17 277 4.8 22.5 0.00 0.43 0.38 75 1007.7
20260505163112 17 251 8.0 19.3 0.00 0.43 0.38 77 1007.7
20260505162112 17 166 6.4 12.9 0.00 0.43 0.38 78 1007.7
20260505160112 16 218 6.4 17.7 0.00 0.43 0.38 80 1007.5
20260505153112 16 253 6.4 12.9 0.03 0.43 0.38 85 1007.8
20260505152111 15 241 6.4 12.9 0.23 0.43 0.38 86 1007.8
20260505151111 14 182 3.2 9.7 0.33 0.43 0.38 88 1007.9
20260505140111 19 233 1.6 4.8 0.00 0.05 0.00 74 1007.3
20260505130110 18 116 3.2 8.0 0.00 0.05 0.00 74 1007.8
20260505124110 18 141 1.6 3.2 0.00 0.05 0.00 73 1008.1
20260505123110 18 157 4.8 6.4 0.00 0.05 0.00 77 1008.2
20260505122110 17 33 1.6 4.8 0.00 0.05 0.00 79 1008.2
20260505121111 17 235 4.8 8.0 0.00 0.05 0.00 78 1008.3
20260505115110 16 296 3.2 8.0 0.00 0.05 0.00 82 1008.6
20260505113110 16 289 1.6 6.4 0.00 0.05 0.00 82 1008.8
20260505111110 16 260 3.2 6.4 0.00 0.05 0.00 81 1008.9
20260505102110 16 300 0.0 1.6 0.00 0.05 0.00 83 1009.0
20260505101110 15 310 0.0 3.2 0.00 0.05 0.00 83 1008.9
20260505100109 16 313 1.6 6.4 0.00 0.05 0.00 82 1009.0
20260505094109 15 299 1.6 4.8 0.00 0.05 0.00 84 1008.9
20260505093114 15 330 0.0 0.0 0.00 0.05 0.00 84 1009.0
20260505092114 15 344 0.0 3.2 0.00 0.05 0.00 85 1008.9
20260505090114 15 282 0.0 0.0 0.00 0.05 0.00 87 1009.3
20260505085114 15 286 0.0 3.2 0.00 0.05 0.00 87 1009.4
20260505084114 15 279 0.0 3.2 0.00 0.05 0.00 87 1009.4
20260505083113 15 293 1.6 4.8 0.00 0.05 0.00 87 1009.5
20260505082113 15 284 1.6 6.4 0.00 0.05 0.00 86 1009.7
20260505081113 15 265 0.0 4.8 0.00 0.05 0.00 86 1009.6
20260505080113 15 280 0.0 1.6 0.00 0.05 0.00 86 1009.7
20260505075113 15 247 0.0 1.6 0.00 0.05 0.00 87 1009.7
20260505073113 14 314 0.0 0.0 0.00 0.05 0.00 90 1009.7
20260505072113 13 310 0.0 0.0 0.00 0.05 0.00 91 1009.8
20260505071113 13 284 0.0 0.0 0.00 0.05 0.00 91 1010.0
20260505070113 13 282 0.0 0.0 0.00 0.05 0.00 92 1010.1
20260505065113 13 275 0.0 0.0 0.00 0.05 0.00 92 1010.1
20260505063112 12 258 0.0 4.8 0.00 0.05 0.00 93 1010.3
20260505062112 12 285 1.6 4.8 0.00 0.05 0.00 93 1010.3
20260505061112 12 280 0.0 0.0 0.00 0.05 0.00 94 1010.3
20260505054112 12 282 0.0 0.0 0.00 0.05 0.00 94 1010.5
20260505053112 12 282 1.6 3.2 0.00 0.05 0.00 94 1010.3
20260505052112 11 278 1.6 6.4 0.00 0.05 0.00 94 1010.2
20260505051112 11 295 0.0 1.6 0.00 0.05 0.00 94 1010.2
20260505050112 11 295 0.0 1.6 0.00 0.05 0.00 94 1010.3
20260505041111 11 295 0.0 4.8 0.00 0.05 0.00 92 1010.2
20260505040111 11 303 0.0 3.2 0.00 0.05 0.00 92 1010.2